Precipitable_Water
0.39 0.32 0.28 0.28 0.28 0.33 0.33 0.34 0.36 0.37 0.37 0.41 0.42 0.41 0.42 0.45 0.49 0.55 0.55 0.60 0.68 0.60 0.59 0.61 0.59 0.57 0.59 0.63 0.68 0.77 0.82 0.78 0.77 0.79 0.79 0.78 0.82 0.84 0.86 0.89 0.91 0.90 0.90 0.95 0.96 0.97 0.96 0.98 1.01 1.02 1.02 1.02 1.02 1.02 1.01 0.98 0.96 0.95 0.93 0.91 0.89 0.96 0.98 0.97 0.94 0.92 0.90 0.87 0.90 0.92 0.90 0.88 0.93 0.94 0.98 0.98 1.02 1.05 1.08 1.10 1.11 1.12 1.15 1.18 1.18 1.21
0.38 0.29 0.29 0.31 0.32 0.29 0.31 0.33 0.38 0.39 0.40 0.40 0.41 0.41 0.42 0.45 0.44 0.54 0.55 0.64 0.70 0.59 0.58 0.65 0.58 0.56 0.60 0.65 0.69 0.75 0.75 0.71 0.73 0.74 0.76 0.76 0.80 0.81 0.82 0.84 0.85 0.88 0.94 0.95 0.94 0.96 0.95 0.96 0.97 0.98 0.98 0.96 0.88 0.90 0.90 0.89 0.88 0.88 0.89 0.86 0.88 0.91 0.92 0.92 0.91 0.90 0.91 0.93 0.91 0.89 0.89 0.90 0.93 0.92 0.91 0.91 0.97 1.01 1.06 1.08 1.08 1.08 1.09 1.09 1.10 1.10
0.32 0.30 0.31 0.34 0.36 0.37 0.37 0.38 0.40 0.38 0.36 0.39 0.40 0.41 0.40 0.45 0.51 0.61 0.64 0.69 0.68 0.62 0.58 0.62 0.54 0.55 0.60 0.65 0.71 0.72 0.71 0.76 0.79 0.76 0.79 0.81 0.82 0.82 0.84 0.84 0.84 0.84 0.84 0.89 0.91 0.93 0.92 0.93 0.92 0.93 0.93 0.90 0.88 0.85 0.84 0.86 0.86 0.86 0.86 0.85 0.85 0.87 0.86 0.85 0.87 0.86 0.84 0.89 0.93 0.93 0.91 0.90 0.91 0.98 0.97 0.97 0.99 1.01 1.00 1.02 1.05 1.07 1.08 1.08 1.07 1.07
0.28 0.31 0.35 0.39 0.39 0.38 0.37 0.39 0.37 0.39 0.38 0.35 0.38 0.37 0.37 0.46 0.42 0.43 0.60 0.67 0.68 0.61 0.56 0.59 0.52 0.55 0.61 0.68 0.70 0.75 0.75 0.79 0.85 0.84 0.84 0.85 0.85 0.84 0.85 0.84 0.83 0.82 0.82 0.83 0.87 0.91 0.95 0.95 0.90 0.89 0.87 0.85 0.84 0.83 0.83 0.83 0.81 0.83 0.83 0.84 0.83 0.81 0.81 0.79 0.79 0.80 0.82 0.84 0.86 0.89 0.91 0.93 0.92 0.88 0.93 0.94 0.96 0.96 0.96 0.94 1.00 1.02 1.04 1.06 1.07 1.08
0.31 0.35 0.41 0.41 0.39 0.37 0.34 0.35 0.35 0.36 0.34 0.39 0.39 0.39 0.41 0.44 0.44 0.42 0.49 0.61 0.66 0.69 0.67 0.58 0.51 0.49 0.56 0.58 0.62 0.70 0.80 0.80 0.84 0.85 0.86 0.89 0.92 0.94 0.93 0.93 0.91 0.85 0.85 0.86 0.88 0.90 0.88 0.85 0.80 0.79 0.82 0.82 0.78 0.81 0.81 0.78 0.77 0.78 0.78 0.79 0.80 0.78 0.76 0.75 0.74 0.73 0.74 0.73 0.71 0.72 0.74 0.78 0.77 0.78 0.76 0.75 0.75 0.80 0.85 0.89 0.91 0.94 1.00 1.00 1.01 1.04
0.31 0.36 0.43 0.39 0.37 0.36 0.36 0.35 0.35 0.35 0.32 0.37 0.42 0.43 0.46 0.47 0.46 0.48 0.52 0.51 0.52 0.51 0.57 0.50 0.35 0.36 0.51 0.57 0.58 0.65 0.70 0.69 0.77 0.77 0.79 0.84 0.88 0.91 0.86 0.87 0.90 0.88 0.89 0.86 0.84 0.83 0.82 0.80 0.76 0.71 0.72 0.74 0.76 0.77 0.79 0.78 0.74 0.73 0.70 0.71 0.71 0.68 0.67 0.66 0.67 0.67 0.65 0.62 0.59 0.56 0.54 0.53 0.54 0.52 0.53 0.52 0.56 0.62 0.66 0.69 0.80 0.85 0.91 0.94 0.96 0.98
0.32 0.39 0.40 0.37 0.36 0.37 0.37 0.37 0.41 0.40 0.35 0.35 0.41 0.51 0.50 0.49 0.48 0.50 0.50 0.47 0.37 0.32 0.48 0.57 0.31 0.29 0.49 0.49 0.55 0.59 0.62 0.63 0.69 0.71 0.72 0.78 0.82 0.85 0.84 0.89 0.87 0.83 0.84 0.86 0.86 0.83 0.79 0.76 0.74 0.70 0.69 0.72 0.72 0.75 0.77 0.75 0.71 0.70 0.69 0.67 0.65 0.62 0.58 0.58 0.57 0.57 0.55 0.53 0.53 0.50 0.50 0.51 0.50 0.47 0.48 0.52 0.53 0.56 0.61 0.63 0.65 0.69 0.76 0.81 0.83 0.87
0.36 0.36 0.37 0.38 0.38 0.38 0.38 0.35 0.40 0.41 0.35 0.36 0.53 0.54 0.52 0.51 0.49 0.49 0.48 0.44 0.41 0.52 0.55 0.54 0.43 0.34 0.36 0.46 0.59 0.65 0.61 0.61 0.63 0.67 0.71 0.76 0.79 0.81 0.84 0.86 0.84 0.82 0.83 0.83 0.82 0.81 0.79 0.77 0.72 0.67 0.68 0.69 0.71 0.75 0.75 0.73 0.70 0.67 0.66 0.66 0.64 0.64 0.61 0.58 0.56 0.54 0.53 0.48 0.48 0.48 0.49 0.50 0.49 0.48 0.48 0.51 0.51 0.52 0.54 0.54 0.56 0.59 0.62 0.67 0.69 0.73
0.34 0.32 0.36 0.38 0.39 0.36 0.35 0.39 0.42 0.43 0.37 0.40 0.52 0.54 0.51 0.51 0.50 0.49 0.47 0.44 0.45 0.43 0.38 0.44 0.47 0.33 0.37 0.49 0.60 0.61 0.52 0.55 0.59 0.65 0.71 0.75 0.79 0.81 0.82 0.84 0.83 0.83 0.84 0.82 0.79 0.78 0.77 0.76 0.75 0.72 0.68 0.70 0.69 0.69 0.68 0.69 0.68 0.67 0.65 0.64 0.63 0.60 0.60 0.61 0.60 0.56 0.56 0.53 0.50 0.48 0.48 0.46 0.51 0.55 0.53 0.56 0.56 0.53 0.51 0.48 0.53 0.55 0.58 0.60 0.61 0.61
0.34 0.38 0.39 0.41 0.40 0.39 0.47 0.49 0.48 0.45 0.38 0.48 0.52 0.54 0.54 0.56 0.53 0.51 0.46 0.45 0.45 0.39 0.30 0.36 0.41 0.31 0.36 0.48 0.50 0.56 0.53 0.49 0.55 0.63 0.68 0.72 0.75 0.80 0.83 0.83 0.83 0.83 0.83 0.83 0.81 0.79 0.78 0.77 0.75 0.73 0.71 0.67 0.67 0.68 0.68 0.67 0.67 0.65 0.62 0.59 0.58 0.57 0.58 0.58 0.59 0.60 0.57 0.56 0.54 0.48 0.48 0.47 0.46 0.51 0.53 0.54 0.56 0.55 0.53 0.48 0.48 0.55 0.58 0.59 0.58 0.57
0.36 0.42 0.44 0.43 0.41 0.47 0.52 0.54 0.55 0.50 0.48 0.53 0.52 0.48 0.48 0.49 0.49 0.51 0.50 0.46 0.38 0.31 0.31 0.38 0.42 0.40 0.31 0.43 0.47 0.45 0.46 0.54 0.59 0.64 0.69 0.72 0.78 0.84 0.85 0.82 0.81 0.79 0.79 0.79 0.78 0.77 0.76 0.75 0.71 0.67 0.62 0.61 0.63 0.67 0.67 0.65 0.66 0.65 0.62 0.58 0.54 0.55 0.60 0.60 0.56 0.57 0.58 0.58 0.56 0.52 0.49 0.49 0.48 0.47 0.49 0.48 0.54 0.56 0.51 0.48 0.47 0.50 0.59 0.62 0.60 0.59
0.35 0.38 0.39 0.41 0.49 0.51 0.55 0.51 0.56 0.57 0.56 0.52 0.47 0.45 0.45 0.43 0.48 0.44 0.41 0.41 0.30 0.27 0.37 0.45 0.45 0.47 0.29 0.39 0.53 0.59 0.64 0.66 0.63 0.60 0.63 0.66 0.72 0.75 0.75 0.77 0.78 0.78 0.77 0.76 0.74 0.72 0.71 0.69 0.67 0.66 0.59 0.56 0.54 0.60 0.63 0.63 0.64 0.62 0.61 0.60 0.55 0.53 0.53 0.56 0.57 0.56 0.58 0.58 0.55 0.54 0.51 0.49 0.50 0.48 0.49 0.49 0.51 0.52 0.50 0.49 0.48 0.49 0.57 0.57 0.58 0.59
0.30 0.33 0.39 0.43 0.47 0.47 0.47 0.48 0.50 0.54 0.54 0.51 0.47 0.45 0.36 0.33 0.38 0.30 0.35 0.26 0.26 0.27 0.37 0.46 0.47 0.39 0.36 0.45 0.52 0.60 0.63 0.67 0.68 0.66 0.61 0.64 0.69 0.71 0.73 0.75 0.75 0.76 0.74 0.70 0.69 0.68 0.67 0.65 0.64 0.64 0.62 0.59 0.51 0.52 0.60 0.60 0.59 0.58 0.57 0.57 0.54 0.53 0.55 0.56 0.59 0.59 0.58 0.55 0.54 0.52 0.52 0.51 0.52 0.51 0.53 0.52 0.52 0.53 0.51 0.50 0.49 0.48 0.49 0.52 0.51 0.50
0.27 0.31 0.30 0.33 0.43 0.45 0.47 0.39 0.41 0.42 0.47 0.46 0.42 0.37 0.32 0.27 0.27 0.23 0.26 0.30 0.28 0.35 0.44 0.44 0.47 0.36 0.46 0.49 0.58 0.58 0.64 0.68 0.68 0.65 0.65 0.66 0.68 0.67 0.71 0.72 0.72 0.71 0.68 0.67 0.67 0.67 0.66 0.65 0.64 0.63 0.63 0.62 0.58 0.54 0.54 0.57 0.57 0.57 0.56 0.57 0.56 0.54 0.57 0.58 0.60 0.58 0.55 0.55 0.56 0.55 0.55 0.56 0.55 0.53 0.56 0.56 0.54 0.53 0.51 0.48 0.48 0.49 0.50 0.49 0.47 0.48
0.23 0.22 0.24 0.27 0.23 0.39 0.44 0.40 0.39 0.42 0.43 0.44 0.47 0.41 0.35 0.33 0.27 0.23 0.25 0.22 0.23 0.29 0.37 0.47 0.37 0.29 0.34 0.40 0.61 0.63 0.69 0.71 0.69 0.68 0.67 0.68 0.71 0.72 0.71 0.70 0.70 0.67 0.65 0.67 0.66 0.64 0.64 0.63 0.63 0.61 0.63 0.62 0.60 0.56 0.55 0.58 0.58 0.58 0.56 0.56 0.55 0.55 0.55 0.59 0.58 0.56 0.55 0.54 0.55 0.56 0.57 0.56 0.57 0.56 0.57 0.57 0.57 0.53 0.48 0.47 0.48 0.49 0.52 0.52 0.51 0.52
0.25 0.23 0.24 0.26 0.26 0.36 0.38 0.41 0.44 0.41 0.40 0.45 0.44 0.44 0.35 0.31 0.37 0.26 0.31 0.30 0.29 0.29 0.29 0.34 0.35 0.44 0.43 0.58 0.65 0.69 0.68 0.68 0.69 0.68 0.66 0.64 0.65 0.68 0.67 0.66 0.64 0.63 0.64 0.65 0.63 0.62 0.61 0.60 0.62 0.61 0.61 0.61 0.58 0.56 0.57 0.59 0.59 0.58 0.56 0.55 0.56 0.55 0.57 0.60 0.59 0.58 0.57 0.55 0.55 0.56 0.54 0.53 0.55 0.58 0.59 0.58 0.57 0.54 0.52 0.52 0.51 0.51 0.54 0.56 0.55 0.56
0.26 0.21 0.23 0.25 0.31 0.35 0.38 0.40 0.38 0.39 0.28 0.32 0.37 0.28 0.30 0.37 0.37 0.32 0.36 0.40 0.37 0.33 0.27 0.43 0.40 0.48 0.59 0.62 0.64 0.69 0.66 0.65 0.65 0.62 0.59 0.57 0.57 0.61 0.61 0.61 0.61 0.62 0.63 0.62 0.62 0.60 0.58 0.58 0.60 0.60 0.58 0.55 0.57 0.56 0.59 0.60 0.60 0.58 0.56 0.56 0.57 0.60 0.61 0.61 0.60 0.59 0.58 0.56 0.54 0.52 0.52 0.52 0.53 0.54 0.57 0.59 0.55 0.54 0.53 0.54 0.53 0.51 0.51 0.56 0.55 0.54
0.23 0.21 0.25 0.27 0.27 0.35 0.38 0.37 0.36 0.37 0.36 0.33 0.28 0.30 0.39 0.45 0.40 0.33 0.25 0.30 0.29 0.24 0.28 0.42 0.33 0.40 0.44 0.38 0.60 0.61 0.58 0.59 0.59 0.54 0.53 0.55 0.56 0.55 0.56 0.58 0.59 0.60 0.60 0.61 0.61 0.59 0.58 0.59 0.58 0.58 0.57 0.55 0.57 0.59 0.62 0.61 0.61 0.61 0.59 0.60 0.60 0.61 0.61 0.61 0.61 0.59 0.58 0.56 0.53 0.52 0.52 0.53 0.53 0.52 0.53 0.54 0.54 0.56 0.56 0.53 0.53 0.53 0.52 0.52 0.52 0.53
0.33 0.21 0.23 0.27 0.26 0.29 0.34 0.34 0.31 0.35 0.40 0.32 0.33 0.43 0.35 0.26 0.27 0.33 0.32 0.23 0.24 0.23 0.27 0.37 0.39 0.39 0.42 0.40 0.53 0.53 0.55 0.55 0.55 0.53 0.54 0.53 0.53 0.52 0.55 0.58 0.59 0.60 0.59 0.58 0.57 0.58 0.58 0.57 0.56 0.57 0.55 0.56 0.58 0.60 0.61 0.61 0.61 0.62 0.62 0.63 0.61 0.60 0.62 0.61 0.60 0.59 0.58 0.57 0.54 0.53 0.52 0.52 0.51 0.52 0.54 0.55 0.56 0.56 0.56 0.55 0.55 0.55 0.53 0.54 0.53 0.52
0.38 0.23 0.21 0.26 0.25 0.26 0.29 0.30 0.24 0.29 0.36 0.38 0.41 0.38 0.46 0.38 0.30 0.29 0.29 0.28 0.31 0.25 0.26 0.28 0.36 0.29 0.45 0.48 0.53 0.55 0.57 0.58 0.56 0.52 0.52 0.53 0.52 0.53 0.54 0.55 0.56 0.56 0.56 0.56 0.56 0.56 0.56 0.55 0.54 0.55 0.55 0.53 0.54 0.57 0.60 0.62 0.63 0.62 0.63 0.63 0.62 0.63 0.63 0.61 0.59 0.58 0.55 0.56 0.55 0.53 0.53 0.54 0.54 0.54 0.54 0.57 0.56 0.54 0.53 0.55 0.55 0.56 0.54 0.53 0.54 0.52
0.33 0.34 0.18 0.23 0.28 0.26 0.20 0.24 0.26 0.30 0.30 0.32 0.34 0.34 0.36 0.36 0.40 0.37 0.33 0.31 0.28 0.26 0.25 0.25 0.25 0.35 0.47 0.57 0.57 0.57 0.57 0.58 0.56 0.52 0.54 0.55 0.55 0.55 0.55 0.55 0.56 0.55 0.55 0.55 0.56 0.56 0.56 0.54 0.53 0.54 0.56 0.57 0.58 0.59 0.60 0.63 0.63 0.64 0.64 0.63 0.61 0.60 0.61 0.59 0.58 0.57 0.56 0.57 0.55 0.54 0.53 0.53 0.53 0.52 0.54 0.55 0.55 0.54 0.53 0.52 0.52 0.52 0.52 0.52 0.50 0.52
0.32 0.28 0.21 0.24 0.24 0.23 0.21 0.25 0.25 0.28 0.28 0.26 0.29 0.32 0.35 0.30 0.29 0.27 0.21 0.34 0.34 0.30 0.25 0.24 0.23 0.35 0.46 0.57 0.57 0.58 0.59 0.60 0.61 0.58 0.55 0.55 0.55 0.55 0.55 0.55 0.55 0.55 0.55 0.56 0.56 0.56 0.54 0.54 0.54 0.54 0.58 0.60 0.59 0.60 0.61 0.63 0.64 0.65 0.64 0.61 0.61 0.62 0.60 0.57 0.57 0.57 0.57 0.58 0.57 0.55 0.55 0.54 0.54 0.53 0.52 0.51 0.53 0.52 0.52 0.52 0.52 0.53 0.52 0.51 0.53 0.54
0.40 0.34 0.25 0.21 0.24 0.23 0.25 0.27 0.31 0.31 0.31 0.30 0.28 0.28 0.37 0.36 0.36 0.28 0.20 0.25 0.32 0.34 0.36 0.32 0.26 0.30 0.46 0.55 0.60 0.61 0.62 0.63 0.62 0.58 0.54 0.55 0.54 0.53 0.53 0.54 0.55 0.55 0.54 0.55 0.55 0.56 0.56 0.56 0.56 0.56 0.58 0.59 0.60 0.60 0.62 0.63 0.64 0.64 0.62 0.61 0.62 0.60 0.59 0.59 0.58 0.59 0.60 0.58 0.56 0.55 0.55 0.53 0.51 0.51 0.51 0.51 0.51 0.50 0.50 0.51 0.52 0.53 0.52 0.52 0.51 0.53
0.50 0.30 0.24 0.26 0.32 0.34 0.33 0.34 0.34 0.34 0.31 0.28 0.27 0.29 0.32 0.32 0.35 0.32 0.28 0.31 0.27 0.30 0.29 0.27 0.24 0.30 0.46 0.55 0.59 0.62 0.64 0.61 0.59 0.56 0.53 0.53 0.51 0.50 0.51 0.52 0.53 0.53 0.54 0.55 0.57 0.58 0.58 0.56 0.57 0.57 0.57 0.59 0.60 0.61 0.62 0.64 0.64 0.64 0.62 0.62 0.62 0.60 0.60 0.60 0.60 0.60 0.60 0.57 0.56 0.56 0.52 0.50 0.50 0.49 0.50 0.49 0.50 0.49 0.49 0.50 0.50 0.52 0.51 0.50 0.50 0.50
0.37 0.34 0.31 0.24 0.26 0.27 0.29 0.33 0.32 0.34 0.33 0.27 0.25 0.25 0.29 0.31 0.35 0.37 0.35 0.36 0.27 0.30 0.30 0.24 0.20 0.27 0.43 0.55 0.59 0.60 0.55 0.52 0.52 0.54 0.52 0.46 0.45 0.47 0.49 0.50 0.50 0.51 0.53 0.56 0.57 0.58 0.58 0.57 0.56 0.59 0.60 0.61 0.61 0.63 0.65 0.65 0.65 0.64 0.63 0.64 0.62 0.61 0.62 0.61 0.61 0.59 0.58 0.57 0.55 0.53 0.50 0.49 0.48 0.47 0.47 0.47 0.47 0.47 0.47 0.47 0.47 0.48 0.47 0.47 0.46 0.47
0.37 0.33 0.31 0.23 0.21 0.18 0.18 0.18 0.20 0.23 0.26 0.29 0.28 0.25 0.25 0.28 0.29 0.30 0.25 0.27 0.22 0.28 0.29 0.24 0.24 0.33 0.40 0.48 0.51 0.55 0.52 0.51 0.49 0.48 0.49 0.48 0.46 0.47 0.49 0.50 0.52 0.53 0.54 0.55 0.56 0.57 0.56 0.56 0.58 0.61 0.61 0.62 0.64 0.65 0.66 0.66 0.66 0.65 0.64 0.64 0.63 0.62 0.62 0.61 0.61 0.59 0.58 0.56 0.53 0.50 0.48 0.47 0.47 0.46 0.46 0.46 0.45 0.45 0.44 0.44 0.45 0.45 0.45 0.45 0.45 0.45
0.32 0.32 0.28 0.24 0.26 0.25 0.25 0.27 0.31 0.33 0.29 0.24 0.24 0.24 0.22 0.28 0.30 0.30 0.29 0.25 0.21 0.26 0.25 0.28 0.28 0.30 0.33 0.39 0.43 0.47 0.47 0.45 0.45 0.47 0.47 0.47 0.49 0.50 0.51 0.52 0.53 0.54 0.54 0.56 0.57 0.58 0.57 0.57 0.58 0.61 0.63 0.64 0.66 0.67 0.68 0.67 0.66 0.66 0.65 0.64 0.64 0.63 0.61 0.59 0.59 0.58 0.55 0.54 0.51 0.49 0.47 0.46 0.45 0.45 0.45 0.43 0.43 0.42 0.42 0.41 0.42 0.41 0.41 0.43 0.43 0.43
0.28 0.25 0.25 0.26 0.24 0.25 0.28 0.28 0.30 0.31 0.26 0.25 0.24 0.24 0.25 0.22 0.24 0.24 0.21 0.21 0.29 0.26 0.23 0.33 0.34 0.28 0.30 0.37 0.41 0.42 0.45 0.45 0.46 0.46 0.47 0.48 0.50 0.49 0.51 0.53 0.54 0.54 0.56 0.59 0.59 0.57 0.56 0.58 0.60 0.62 0.64 0.65 0.66 0.67 0.68 0.68 0.68 0.67 0.64 0.63 0.63 0.62 0.60 0.59 0.58 0.56 0.53 0.51 0.49 0.47 0.45 0.44 0.44 0.43 0.42 0.42 0.41 0.41 0.40 0.40 0.40 0.40 0.41 0.41 0.41 0.41
0.25 0.20 0.27 0.30 0.27 0.29 0.30 0.29 0.30 0.28 0.27 0.26 0.27 0.28 0.28 0.27 0.24 0.20 0.21 0.27 0.29 0.24 0.23 0.30 0.33 0.29 0.32 0.36 0.39 0.40 0.42 0.42 0.43 0.44 0.47 0.50 0.52 0.52 0.53 0.53 0.52 0.54 0.57 0.58 0.57 0.58 0.59 0.60 0.62 0.65 0.66 0.67 0.67 0.67 0.67 0.67 0.67 0.66 0.64 0.64 0.62 0.61 0.59 0.58 0.55 0.53 0.51 0.49 0.47 0.45 0.43 0.42 0.42 0.42 0.41 0.41 0.40 0.39 0.39 0.39 0.39 0.40 0.39 0.40 0.39 0.39
0.30 0.26 0.32 0.35 0.32 0.30 0.29 0.31 0.33 0.32 0.29 0.27 0.28 0.31 0.32 0.30 0.28 0.28 0.28 0.28 0.27 0.25 0.28 0.29 0.29 0.29 0.33 0.36 0.39 0.40 0.42 0.40 0.40 0.44 0.46 0.47 0.47 0.50 0.52 0.50 0.51 0.55 0.57 0.58 0.59 0.60 0.61 0.62 0.64 0.65 0.66 0.66 0.66 0.66 0.66 0.65 0.64 0.64 0.62 0.61 0.60 0.59 0.59 0.56 0.52 0.50 0.48 0.46 0.45 0.44 0.42 0.41 0.41 0.41 0.40 0.39 0.38 0.39 0.40 0.41 0.41 0.41 0.40 0.39 0.39 0.39
0.36 0.28 0.35 0.36 0.33 0.30 0.32 0.33 0.34 0.33 0.30 0.28 0.31 0.33 0.34 0.34 0.31 0.30 0.30 0.31 0.31 0.32 0.34 0.34 0.31 0.30 0.39 0.44 0.42 0.44 0.44 0.44 0.42 0.39 0.38 0.40 0.42 0.46 0.48 0.50 0.54 0.56 0.58 0.59 0.60 0.59 0.60 0.62 0.63 0.64 0.64 0.64 0.65 0.65 0.65 0.63 0.62 0.62 0.61 0.60 0.58 0.57 0.56 0.53 0.49 0.47 0.46 0.45 0.44 0.43 0.42 0.41 0.40 0.39 0.38 0.38 0.39 0.40 0.41 0.41 0.41 0.41 0.41 0.40 0.39 0.39
0.38 0.29 0.37 0.35 0.31 0.29 0.31 0.32 0.32 0.35 0.35 0.32 0.31 0.32 0.32 0.31 0.27 0.28 0.27 0.29 0.28 0.29 0.32 0.33 0.29 0.29 0.36 0.40 0.40 0.40 0.39 0.38 0.38 0.39 0.40 0.41 0.44 0.46 0.48 0.51 0.53 0.55 0.56 0.56 0.57 0.58 0.59 0.59 0.58 0.58 0.59 0.60 0.61 0.61 0.61 0.61 0.61 0.60 0.57 0.55 0.53 0.52 0.52 0.49 0.47 0.46 0.45 0.44 0.43 0.42 0.42 0.41 0.40 0.38 0.38 0.39 0.40 0.41 0.43 0.43 0.41 0.40 0.41 0.41 0.40 0.40
0.33 0.30 0.26 0.26 0.27 0.26 0.30 0.33 0.33 0.33 0.33 0.29 0.28 0.30 0.31 0.32 0.30 0.32 0.33 0.33 0.31 0.31 0.28 0.27 0.29 0.35 0.36 0.38 0.35 0.37 0.38 0.39 0.40 0.40 0.41 0.43 0.45 0.46 0.46 0.48 0.50 0.52 0.53 0.54 0.54 0.54 0.54 0.54 0.54 0.55 0.56 0.58 0.59 0.59 0.60 0.59 0.56 0.52 0.52 0.51 0.52 0.52 0.50 0.48 0.47 0.46 0.44 0.43 0.42 0.42 0.42 0.42 0.42 0.40 0.39 0.39 0.41 0.43 0.44 0.44 0.44 0.42 0.41 0.41 0.42 0.43
0.33 0.30 0.28 0.29 0.23 0.25 0.29 0.31 0.33 0.28 0.21 0.24 0.35 0.38 0.35 0.29 0.30 0.28 0.29 0.31 0.34 0.32 0.30 0.34 0.35 0.38 0.38 0.39 0.38 0.37 0.37 0.37 0.37 0.41 0.45 0.45 0.45 0.46 0.48 0.49 0.51 0.52 0.54 0.55 0.56 0.54 0.55 0.57 0.57 0.57 0.57 0.57 0.56 0.56 0.56 0.55 0.52 0.51 0.52 0.53 0.54 0.50 0.49 0.47 0.47 0.45 0.43 0.43 0.43 0.43 0.43 0.43 0.44 0.43 0.41 0.42 0.42 0.43 0.44 0.44 0.44 0.45 0.45 0.45 0.46 0.44
0.27 0.28 0.28 0.31 0.25 0.24 0.27 0.28 0.25 0.20 0.23 0.35 0.40 0.39 0.37 0.35 0.34 0.31 0.34 0.35 0.35 0.36 0.37 0.37 0.35 0.36 0.38 0.39 0.39 0.40 0.42 0.43 0.44 0.45 0.48 0.49 0.48 0.46 0.47 0.49 0.52 0.53 0.55 0.56 0.56 0.57 0.58 0.58 0.57 0.56 0.54 0.54 0.54 0.55 0.55 0.54 0.54 0.54 0.54 0.54 0.52 0.50 0.48 0.48 0.46 0.44 0.43 0.43 0.43 0.44 0.44 0.44 0.44 0.43 0.42 0.43 0.43 0.44 0.44 0.44 0.45 0.46 0.47 0.47 0.47 0.46
0.21 0.23 0.27 0.26 0.27 0.25 0.23 0.22 0.16 0.23 0.34 0.38 0.39 0.40 0.42 0.42 0.37 0.34 0.31 0.34 0.37 0.37 0.38 0.36 0.38 0.40 0.41 0.42 0.44 0.44 0.43 0.45 0.47 0.48 0.50 0.52 0.52 0.50 0.50 0.50 0.53 0.55 0.55 0.57 0.57 0.58 0.58 0.56 0.53 0.52 0.52 0.55 0.55 0.55 0.55 0.54 0.55 0.53 0.52 0.52 0.51 0.49 0.48 0.47 0.45 0.44 0.44 0.43 0.43 0.44 0.44 0.44 0.44 0.43 0.42 0.42 0.43 0.43 0.43 0.45 0.46 0.46 0.48 0.49 0.49 0.49
0.30 0.28 0.25 0.21 0.25 0.20 0.21 0.23 0.22 0.33 0.31 0.34 0.35 0.37 0.37 0.34 0.31 0.29 0.24 0.30 0.37 0.40 0.39 0.38 0.40 0.42 0.43 0.45 0.46 0.47 0.46 0.45 0.42 0.45 0.52 0.52 0.53 0.54 0.54 0.54 0.55 0.56 0.57 0.59 0.58 0.56 0.56 0.55 0.54 0.54 0.54 0.54 0.55 0.54 0.53 0.54 0.54 0.52 0.50 0.50 0.51 0.49 0.47 0.46 0.45 0.44 0.44 0.43 0.44 0.45 0.45 0.45 0.44 0.42 0.41 0.42 0.42 0.42 0.43 0.44 0.45 0.47 0.49 0.48 0.48 0.47
0.33 0.26 0.27 0.22 0.20 0.25 0.21 0.21 0.23 0.23 0.20 0.27 0.37 0.42 0.43 0.39 0.38 0.35 0.34 0.29 0.39 0.40 0.42 0.41 0.40 0.42 0.43 0.45 0.46 0.46 0.45 0.38 0.35 0.40 0.48 0.52 0.55 0.55 0.58 0.59 0.59 0.57 0.54 0.53 0.54 0.53 0.52 0.53 0.54 0.54 0.52 0.51 0.52 0.54 0.54 0.54 0.52 0.50 0.48 0.48 0.48 0.47 0.46 0.45 0.44 0.44 0.44 0.45 0.46 0.46 0.46 0.46 0.44 0.42 0.42 0.42 0.42 0.42 0.43 0.45 0.46 0.47 0.49 0.47 0.47 0.47
0.35 0.34 0.32 0.24 0.22 0.24 0.22 0.19 0.20 0.19 0.23 0.34 0.37 0.41 0.43 0.45 0.40 0.42 0.33 0.27 0.38 0.41 0.42 0.41 0.40 0.42 0.43 0.43 0.43 0.45 0.40 0.32 0.33 0.39 0.49 0.52 0.53 0.55 0.54 0.54 0.53 0.53 0.52 0.50 0.49 0.48 0.49 0.50 0.52 0.51 0.51 0.51 0.51 0.53 0.55 0.54 0.52 0.49 0.47 0.47 0.46 0.46 0.45 0.45 0.45 0.45 0.46 0.46 0.47 0.48 0.47 0.46 0.45 0.44 0.43 0.43 0.43 0.44 0.44 0.45 0.46 0.48 0.50 0.49 0.49 0.49
0.33 0.31 0.30 0.26 0.23 0.24 0.22 0.20 0.19 0.24 0.25 0.35 0.40 0.43 0.45 0.46 0.42 0.38 0.24 0.25 0.39 0.43 0.44 0.44 0.43 0.43 0.43 0.43 0.43 0.41 0.37 0.31 0.34 0.42 0.49 0.50 0.52 0.53 0.52 0.51 0.52 0.52 0.51 0.51 0.51 0.52 0.52 0.53 0.53 0.52 0.51 0.51 0.51 0.54 0.54 0.53 0.51 0.49 0.48 0.47 0.48 0.46 0.46 0.46 0.47 0.48 0.48 0.48 0.48 0.48 0.47 0.47 0.46 0.46 0.45 0.45 0.45 0.46 0.47 0.48 0.49 0.49 0.49 0.49 0.49 0.48
0.28 0.30 0.30 0.23 0.24 0.24 0.24 0.22 0.25 0.28 0.38 0.43 0.43 0.44 0.45 0.45 0.39 0.26 0.21 0.29 0.43 0.45 0.48 0.47 0.45 0.44 0.43 0.40 0.40 0.36 0.40 0.41 0.43 0.47 0.50 0.51 0.51 0.52 0.53 0.54 0.53 0.52 0.51 0.51 0.52 0.53 0.52 0.52 0.52 0.51 0.51 0.52 0.53 0.54 0.55 0.54 0.51 0.49 0.48 0.48 0.47 0.46 0.47 0.49 0.50 0.50 0.49 0.49 0.49 0.48 0.48 0.48 0.47 0.46 0.47 0.47 0.46 0.47 0.48 0.49 0.49 0.50 0.50 0.49 0.49 0.49
0.29 0.29 0.29 0.28 0.25 0.23 0.24 0.21 0.22 0.29 0.41 0.45 0.45 0.45 0.47 0.37 0.26 0.25 0.37 0.48 0.48 0.48 0.50 0.47 0.44 0.45 0.44 0.41 0.41 0.42 0.43 0.46 0.48 0.49 0.49 0.50 0.50 0.51 0.52 0.52 0.52 0.53 0.54 0.54 0.53 0.53 0.52 0.51 0.52 0.52 0.53 0.55 0.55 0.56 0.55 0.54 0.50 0.49 0.49 0.48 0.47 0.49 0.50 0.50 0.50 0.51 0.51 0.50 0.49 0.49 0.49 0.49 0.49 0.49 0.48 0.48 0.49 0.48 0.48 0.50 0.51 0.51 0.51 0.50 0.50 0.49
0.28 0.25 0.24 0.24 0.27 0.27 0.26 0.23 0.21 0.18 0.36 0.46 0.44 0.43 0.45 0.31 0.33 0.42 0.46 0.49 0.50 0.48 0.47 0.47 0.47 0.46 0.46 0.44 0.46 0.46 0.46 0.47 0.47 0.47 0.47 0.49 0.49 0.50 0.50 0.51 0.51 0.51 0.51 0.52 0.52 0.54 0.53 0.52 0.52 0.52 0.52 0.54 0.55 0.56 0.55 0.54 0.51 0.50 0.49 0.47 0.49 0.51 0.51 0.51 0.51 0.52 0.51 0.50 0.49 0.49 0.50 0.51 0.51 0.50 0.50 0.50 0.50 0.50 0.49 0.50 0.51 0.52 0.52 0.51 0.51 0.49
0.34 0.24 0.25 0.26 0.30 0.21 0.21 0.20 0.21 0.29 0.36 0.45 0.40 0.31 0.39 0.40 0.46 0.47 0.46 0.43 0.48 0.47 0.46 0.48 0.49 0.49 0.49 0.47 0.46 0.45 0.46 0.46 0.47 0.47 0.47 0.48 0.49 0.50 0.50 0.51 0.52 0.52 0.52 0.53 0.53 0.54 0.55 0.53 0.53 0.52 0.53 0.54 0.56 0.56 0.56 0.54 0.51 0.50 0.49 0.49 0.52 0.52 0.52 0.52 0.52 0.51 0.50 0.50 0.51 0.52 0.53 0.53 0.53 0.53 0.52 0.52 0.52 0.52 0.51 0.51 0.52 0.52 0.52 0.52 0.51 0.48
0.35 0.30 0.31 0.25 0.33 0.25 0.23 0.25 0.32 0.36 0.39 0.45 0.42 0.42 0.44 0.48 0.50 0.49 0.46 0.45 0.43 0.44 0.49 0.46 0.47 0.50 0.50 0.49 0.47 0.45 0.45 0.47 0.46 0.47 0.46 0.48 0.49 0.49 0.50 0.51 0.52 0.51 0.52 0.52 0.52 0.54 0.54 0.52 0.52 0.52 0.53 0.55 0.56 0.56 0.56 0.55 0.52 0.50 0.48 0.50 0.52 0.53 0.52 0.52 0.52 0.52 0.51 0.52 0.54 0.54 0.55 0.55 0.54 0.55 0.55 0.55 0.55 0.52 0.51 0.51 0.52 0.51 0.52 0.51 0.47 0.44
0.40 0.42 0.41 0.34 0.31 0.39 0.42 0.40 0.41 0.40 0.41 0.43 0.45 0.48 0.47 0.49 0.53 0.51 0.48 0.45 0.47 0.46 0.47 0.45 0.48 0.49 0.50 0.49 0.45 0.47 0.47 0.47 0.46 0.47 0.48 0.49 0.50 0.52 0.53 0.53 0.53 0.54 0.54 0.54 0.54 0.54 0.54 0.53 0.53 0.53 0.53 0.54 0.56 0.57 0.57 0.56 0.55 0.50 0.51 0.54 0.56 0.56 0.56 0.56 0.54 0.53 0.53 0.52 0.52 0.51 0.52 0.52 0.54 0.55 0.56 0.56 0.56 0.54 0.54 0.52 0.51 0.49 0.46 0.42 0.39 0.40
0.38 0.40 0.37 0.31 0.38 0.31 0.27 0.40 0.39 0.38 0.41 0.44 0.45 0.49 0.51 0.53 0.52 0.50 0.48 0.47 0.48 0.49 0.49 0.49 0.49 0.49 0.49 0.50 0.49 0.48 0.48 0.48 0.48 0.49 0.51 0.51 0.51 0.52 0.52 0.52 0.52 0.53 0.53 0.53 0.54 0.55 0.54 0.53 0.52 0.53 0.54 0.54 0.56 0.57 0.57 0.57 0.57 0.56 0.58 0.60 0.60 0.58 0.56 0.53 0.51 0.50 0.49 0.49 0.50 0.51 0.51 0.51 0.50 0.49 0.49 0.49 0.50 0.50 0.49 0.48 0.46 0.44 0.39 0.35 0.35 0.36
0.32 0.44 0.34 0.34 0.32 0.27 0.29 0.38 0.42 0.44 0.46 0.48 0.48 0.47 0.47 0.49 0.51 0.51 0.52 0.53 0.52 0.52 0.52 0.52 0.52 0.50 0.51 0.50 0.50 0.49 0.49 0.50 0.49 0.50 0.52 0.53 0.54 0.54 0.55 0.55 0.55 0.56 0.57 0.57 0.57 0.57 0.55 0.54 0.53 0.54 0.55 0.53 0.55 0.56 0.56 0.56 0.56 0.57 0.57 0.56 0.56 0.55 0.53 0.52 0.51 0.50 0.50 0.51 0.52 0.51 0.51 0.50 0.50 0.50 0.50 0.50 0.48 0.45 0.44 0.44 0.42 0.38 0.35 0.33 0.35 0.36
0.35 0.35 0.26 0.31 0.28 0.34 0.38 0.40 0.41 0.42 0.43 0.45 0.48 0.50 0.51 0.51 0.50 0.51 0.54 0.55 0.55 0.54 0.54 0.54 0.52 0.51 0.51 0.50 0.52 0.51 0.50 0.51 0.52 0.53 0.54 0.56 0.57 0.58 0.58 0.59 0.60 0.59 0.58 0.56 0.56 0.54 0.53 0.54 0.55 0.55 0.54 0.54 0.56 0.56 0.55 0.53 0.53 0.54 0.54 0.54 0.54 0.54 0.52 0.51 0.51 0.51 0.51 0.51 0.51 0.49 0.50 0.50 0.50 0.49 0.45 0.42 0.41 0.42 0.40 0.36 0.32 0.32 0.33 0.37 0.40 0.41
0.30 0.24 0.31 0.29 0.25 0.26 0.28 0.35 0.42 0.32 0.33 0.40 0.45 0.47 0.49 0.52 0.52 0.51 0.53 0.54 0.55 0.54 0.53 0.52 0.53 0.56 0.54 0.54 0.54 0.53 0.51 0.53 0.56 0.56 0.56 0.57 0.57 0.57 0.57 0.56 0.56 0.55 0.54 0.55 0.55 0.55 0.55 0.57 0.56 0.55 0.53 0.53 0.53 0.53 0.51 0.52 0.52 0.53 0.53 0.53 0.53 0.52 0.50 0.50 0.50 0.49 0.49 0.49 0.47 0.47 0.47 0.46 0.44 0.41 0.37 0.36 0.34 0.32 0.30 0.31 0.32 0.33 0.34 0.34 0.38 0.42
0.25 0.31 0.32 0.27 0.26 0.26 0.36 0.40 0.44 0.43 0.43 0.45 0.47 0.51 0.52 0.53 0.53 0.53 0.52 0.52 0.53 0.55 0.56 0.54 0.53 0.52 0.53 0.54 0.56 0.54 0.53 0.54 0.56 0.57 0.57 0.57 0.56 0.54 0.52 0.49 0.47 0.48 0.49 0.52 0.52 0.52 0.52 0.53 0.52 0.51 0.50 0.51 0.52 0.52 0.52 0.51 0.51 0.52 0.52 0.52 0.51 0.50 0.48 0.47 0.45 0.44 0.44 0.43 0.43 0.43 0.43 0.41 0.37 0.35 0.35 0.36 0.35 0.35 0.33 0.29 0.26 0.28 0.32 0.36 0.38 0.41
Wind_Speed
6 5 4 3 3 5 4 3 4 4 5 8 7 6 7 8 6 5 5 5 6 6 4 3 6 6 4 4 4 5 7 6 6 6 6 6 5 5 5 5 5 5 4 4 5 5 6 6 6 7 7 8 8 9 9 9 10 10 10 10 10 10 10 9 10 10 10 10 10 10 10 10 10 10 10 10 11 11 12 12 13 13 14 14 14 15
7 6 2 2 4 4 3 4 5 5 6 7 7 7 7 6 5 4 6 6 4 4 4 4 5 4 3 3 3 5 6 5 5 6 6 6 5 5 6 5 5 4 4 4 5 5 5 6 6 7 8 8 9 9 9 10 10 10 10 10 10 10 10 10 10 10 10 10 10 10 10 10 10 10 10 10 11 11 11 12 12 12 13 14 14 15
9 6 1 1 3 4 4 5 6 6 6 5 6 7 6 7 6 4 4 5 3 3 5 5 4 4 3 3 4 5 5 5 5 5 5 5 4 4 5 5 4 3 3 4 4 5 5 6 6 7 7 8 8 9 9 10 10 10 10 10 10 10 11 11 11 11 10 10 10 10 10 10 10 11 11 11 11 11 11 12 12 12 12 13 13 14
8 6 3 3 5 7 6 5 6 6 5 4 6 7 8 8 7 5 5 4 3 3 6 5 4 4 3 3 4 4 4 4 4 4 5 6 5 3 3 4 4 3 3 3 3 4 5 6 6 6 7 7 8 9 9 10 10 10 10 10 10 10 10 10 11 11 10 11 11 11 11 11 11 11 11 11 11 11 11 12 12 12 13 13 13 13
9 7 6 7 7 8 6 5 6 6 5 4 5 7 9 9 6 6 7 5 4 4 5 6 4 3 3 3 3 3 4 4 4 4 5 6 5 3 3 3 3 3 2 2 2 4 5 5 5 6 7 7 8 9 9 9 9 9 10 10 10 10 10 11 11 11 11 11 11 11 11 11 11 12 12 12 12 12 12 12 12 13 13 13 13 13
9 8 8 9 8 7 6 5 4 5 6 4 4 6 9 9 7 8 8 7 6 5 6 5 3 2 3 3 3 3 4 4 4 5 5 4 4 4 4 3 3 3 2 1 2 3 5 5 5 6 7 7 8 8 8 8 9 9 9 10 10 10 10 11 11 11 11 11 12 12 12 12 12 13 13 13 13 13 13 13 13 13 14 14 14 14
9 10 10 10 8 7 6 5 3 4 6 5 5 7 9 9 9 9 9 7 6 6 6 4 3 3 3 3 4 4 3 3 4 4 4 4 4 5 5 4 3 2 2 1 3 4 4 5 5 6 7 6 7 7 7 8 8 8 9 10 10 10 11 11 11 12 12 12 12 13 13 13 13 13 13 14 14 14 14 14 14 14 14 14 14 14
9 11 13 12 11 9 8 6 5 5 7 7 7 8 9 10 10 9 7 6 5 6 5 3 4 4 3 3 4 5 3 3 3 4 4 5 5 5 5 4 3 2 1 1 3 4 4 5 6 6 7 6 6 6 7 7 8 9 9 10 10 10 11 11 11 12 12 13 13 13 13 14 14 14 14 14 14 14 14 14 14 14 15 15 15 15
9 10 12 14 13 12 11 10 8 8 9 8 8 9 10 10 9 8 6 5 5 6 5 3 4 4 2 3 4 4 4 4 4 4 5 6 6 5 5 5 3 2 1 1 2 2 3 4 5 6 7 6 5 6 7 7 8 9 9 9 10 11 11 11 12 12 13 14 14 14 14 15 15 15 15 15 15 15 15 15 15 15 15 16 16 16
10 10 11 13 13 13 13 12 12 12 11 10 10 10 9 9 8 7 6 6 5 5 6 6 5 4 2 3 5 4 5 5 5 5 5 6 6 5 5 5 3 2 1 0 1 2 2 4 4 5 6 6 6 6 7 7 8 8 9 10 10 11 11 12 12 13 13 14 15 15 16 16 16 16 16 16 16 16 16 16 16 16 16 17 17 17
9 10 10 11 11 11 12 12 13 14 13 13 12 12 10 8 7 6 5 6 6 4 5 7 6 4 2 3 5 5 4 5 5 5 5 6 6 6 6 5 4 2 1 0 1 1 2 3 4 5 6 6 6 6 7 7 8 8 9 10 11 11 11 12 13 13 14 14 15 16 17 17 17 18 18 18 17 17 18 18 18 18 17 17 18 18
9 9 9 9 9 10 10 11 12 12 13 13 12 11 11 8 6 5 4 5 6 4 4 6 6 4 2 3 5 5 4 5 6 4 4 5 6 7 7 6 5 3 2 1 0 1 2 3 4 5 6 6 6 6 6 7 8 8 9 10 11 12 13 12 13 14 14 15 15 17 17 18 18 18 18 18 18 18 19 19 19 19 18 18 19 19
8 7 7 8 8 9 9 10 10 9 9 10 9 10 9 6 5 4 3 4 5 4 4 6 5 3 1 2 4 6 5 6 6 5 4 5 6 8 8 6 5 4 3 1 1 1 2 3 4 5 5 6 6 6 6 6 7 8 9 10 10 12 13 13 13 14 15 15 16 17 18 18 18 19 18 18 18 19 20 20 20 20 19 19 20 20
7 6 6 7 6 6 7 8 7 5 6 7 7 7 6 6 5 4 3 4 4 4 5 5 4 1 1 0 3 6 5 7 7 6 5 5 6 8 8 6 5 4 3 2 1 2 3 3 4 5 6 6 6 6 6 6 7 8 9 10 11 12 13 13 13 14 15 16 17 18 19 19 19 19 18 18 19 20 21 21 20 20 20 20 21 21
6 6 5 5 4 5 5 5 6 5 5 4 4 5 5 4 5 5 5 5 5 5 4 3 2 2 1 1 3 5 6 7 7 5 5 4 5 7 7 6 6 4 3 2 1 2 3 4 5 6 7 7 7 6 6 6 8 9 10 10 11 12 13 13 13 14 15 16 18 19 19 20 20 19 19 19 20 21 21 20 20 21 20 20 21 21
6 5 4 4 5 6 5 4 6 6 4 2 3 4 3 3 5 6 5 6 6 5 3 3 2 2 2 1 2 4 5 6 5 5 5 5 6 8 7 6 5 4 3 2 2 3 4 5 6 7 7 8 7 6 6 7 9 10 10 11 12 13 13 13 14 15 16 18 19 19 20 21 21 20 20 20 21 21 21 21 21 21 21 21 21 22
5 4 4 6 6 6 5 5 6 6 3 3 3 3 2 3 6 6 5 4 6 5 2 3 3 2 2 2 1 3 4 4 5 5 6 6 7 7 6 5 4 4 3 2 3 5 6 7 7 7 7 8 8 7 7 8 10 11 11 13 14 14 14 14 15 16 18 19 20 20 21 22 21 21 21 21 22 22 22 22 22 22 22 22 22 23
5 4 3 5 6 5 4 5 5 4 4 5 3 2 2 4 4 5 4 3 3 3 1 2 4 3 2 1 2 4 4 4 4 4 5 5 5 5 4 5 4 4 3 4 5 6 7 7 7 7 8 9 8 7 8 9 10 11 12 13 14 15 15 15 15 17 19 20 20 21 22 22 21 21 21 21 22 22 22 23 22 22 22 23 23 23
5 5 2 2 4 3 3 4 4 4 4 4 3 2 3 3 2 2 3 2 2 2 1 2 3 3 3 2 4 5 5 5 4 4 4 3 3 3 4 5 5 4 4 5 6 7 7 7 8 8 8 9 8 8 9 9 11 12 13 14 15 15 16 16 16 18 20 20 21 22 22 22 21 21 21 22 22 23 23 23 23 23 23 23 23 23
5 5 2 1 2 3 3 3 3 2 2 3 2 2 2 2 2 1 1 2 3 2 1 1 0 1 2 3 4 5 5 5 5 4 4 4 3 4 4 5 5 5 5 5 6 7 8 8 8 8 8 8 8 8 9 10 11 12 13 14 15 16 16 16 17 19 20 21 21 22 23 23 23 22 23 23 23 23 23 23 23 23 23 24 24 24
5 5 4 2 3 3 2 2 1 1 1 2 2 2 2 1 1 2 2 2 2 2 1 1 1 2 2 2 3 5 4 4 5 4 3 4 4 4 5 5 5 5 5 6 7 8 8 8 9 9 8 8 8 9 10 10 11 12 13 15 15 16 16 17 18 19 20 21 21 22 23 23 23 23 23 23 23 23 23 23 23 24 24 24 24 24
5 6 6 5 4 5 3 1 1 1 1 1 1 0 1 0 2 2 2 3 2 3 2 2 0 2 2 1 2 4 3 4 5 4 3 4 4 3 4 4 4 5 6 7 8 8 9 9 9 9 8 8 9 9 10 11 12 12 13 15 15 16 16 17 18 19 20 21 21 22 23 23 23 23 23 23 23 23 23 24 24 24 24 24 24 24
5 6 7 6 5 5 4 3 4 3 3 3 2 0 0 0 1 2 0 1 2 2 1 2 1 2 3 1 2 3 3 3 4 4 4 4 4 4 5 5 5 6 7 8 8 8 8 9 9 8 8 8 8 9 10 11 11 12 13 14 15 16 17 17 18 19 20 21 22 22 22 23 23 24 24 24 24 24 24 24 24 24 23 23 23 24
5 5 6 6 4 4 4 5 5 5 5 5 3 2 1 1 0 1 2 2 2 1 0 1 2 3 3 1 2 3 2 3 4 5 5 4 4 5 5 5 6 7 7 7 7 8 8 9 9 8 8 7 8 9 10 10 11 12 13 14 15 16 17 18 19 20 21 21 22 22 23 23 24 24 24 24 24 24 24 24 24 24 23 24 24 24
3 4 5 5 4 4 4 4 5 6 5 5 4 4 3 2 2 1 1 1 2 2 0 0 2 3 3 1 2 3 3 3 4 5 4 4 5 5 5 5 6 6 6 7 8 8 8 9 9 8 7 7 8 8 9 10 11 12 13 14 15 16 17 18 19 20 20 21 21 22 23 24 24 24 24 24 24 24 24 25 25 25 25 25 26 26
4 4 4 4 3 2 2 2 3 3 4 5 6 5 4 4 3 1 1 1 2 2 1 0 1 2 3 1 2 2 2 2 3 4 4 4 5 5 5 5 5 5 6 7 7 8 8 8 8 8 7 8 8 8 10 11 11 12 14 15 15 16 18 19 19 19 20 21 21 23 24 24 24 24 24 24 24 24 25 26 26 26 27 27 27 28
6 5 5 5 4 3 2 1 1 3 4 5 6 7 6 5 4 2 2 2 1 1 2 1 2 0 2 1 1 1 2 2 4 4 5 5 5 5 5 5 5 5 6 7 7 7 8 8 8 7 7 8 8 9 10 11 12 13 14 14 15 16 18 19 19 20 20 21 22 23 24 24 23 23 23 24 24 25 26 27 27 28 28 28 29 29
6 6 6 6 5 3 3 2 2 3 4 3 4 6 6 6 5 4 3 2 1 2 2 2 2 1 2 2 2 2 3 3 5 5 6 6 5 5 5 5 5 6 7 7 7 7 8 8 8 8 7 7 8 9 10 11 11 12 13 14 15 17 18 19 19 19 20 21 22 23 23 23 23 23 24 24 25 26 27 27 28 29 29 29 29 30
6 5 4 5 5 3 3 3 4 4 3 3 4 5 6 6 6 6 4 2 2 2 0 2 1 2 3 3 3 3 3 3 5 6 6 6 5 5 5 5 6 6 7 7 7 8 8 9 8 8 7 8 8 9 10 10 11 12 13 14 16 17 18 18 19 19 20 21 22 22 22 23 23 23 24 25 26 26 27 28 29 30 30 30 30 31
6 4 3 4 5 5 4 4 4 4 3 3 4 4 5 5 6 6 5 4 4 3 1 1 2 1 2 3 4 4 3 3 4 4 5 5 5 6 6 6 6 6 7 7 8 8 8 8 8 8 8 8 9 9 10 10 11 12 13 14 16 17 17 18 18 19 19 20 20 21 22 23 23 24 24 25 26 26 27 28 29 30 31 31 31 32
6 3 2 4 5 5 4 4 4 5 4 4 5 5 5 6 6 6 5 5 5 5 3 3 3 1 2 2 2 3 2 2 3 4 5 5 5 5 5 5 6 6 6 7 7 8 8 7 7 7 7 8 8 9 10 10 12 13 14 15 16 16 17 17 18 18 19 19 19 20 22 23 23 24 24 25 26 27 28 29 30 30 31 31 32 32
5 4 4 4 4 3 3 3 3 5 6 5 5 5 4 5 5 5 5 4 4 3 3 3 2 2 2 2 2 3 2 2 3 4 4 5 4 3 3 3 4 4 4 5 5 6 7 7 6 6 7 7 8 9 10 11 12 13 14 15 16 16 16 16 17 17 18 18 19 21 22 22 23 24 24 24 25 27 28 29 30 31 32 32 32 33
5 5 4 4 4 2 2 3 3 5 5 4 3 2 3 4 5 5 5 5 3 2 2 2 1 2 1 1 2 2 2 3 4 4 3 3 3 3 3 3 3 3 4 4 5 6 7 7 7 6 7 8 9 9 10 11 12 13 14 15 15 15 16 16 17 17 17 18 20 21 22 23 23 24 24 25 26 27 28 29 30 31 31 32 33 33
4 4 3 3 4 2 3 3 4 5 4 2 2 1 2 3 4 4 5 5 3 3 3 2 1 0 0 1 1 1 2 3 3 4 3 1 2 3 4 4 4 4 5 5 6 7 7 7 6 7 8 9 9 9 10 11 12 14 15 15 15 15 16 16 16 17 18 19 20 21 22 23 24 24 25 26 26 27 28 29 30 31 31 32 33 34
3 3 3 3 4 3 4 5 4 3 2 2 3 3 3 3 4 4 6 6 5 4 4 3 2 1 1 1 1 1 2 2 2 3 2 2 2 3 4 4 4 4 5 5 6 7 7 7 7 8 9 9 9 10 11 12 13 14 15 15 15 15 15 16 17 18 19 20 21 22 22 23 24 25 25 26 27 28 28 29 30 31 32 32 33 34
4 3 3 3 3 3 4 4 3 2 2 3 5 4 3 4 5 5 7 8 6 4 3 2 0 1 0 1 1 1 2 2 3 3 3 2 3 3 3 4 4 4 4 5 6 6 7 7 8 8 9 9 10 11 12 12 13 13 14 15 15 15 16 17 17 18 19 21 22 22 23 23 24 25 26 27 27 28 29 30 31 32 32 33 33 34
5 4 3 4 3 3 3 3 2 3 4 4 4 3 3 4 4 4 5 6 6 4 2 1 1 2 1 2 1 1 2 3 4 4 3 3 3 3 3 3 4 4 4 5 6 6 7 8 9 10 10 11 11 12 12 12 13 13 14 15 15 16 16 17 18 19 21 22 23 23 23 24 25 26 27 27 28 28 29 30 31 32 32 33 34 35
5 4 3 3 3 3 3 3 3 4 4 3 3 3 4 4 3 3 5 5 6 5 1 1 1 2 2 3 1 1 3 4 5 5 4 3 3 3 3 4 4 5 5 6 6 6 7 8 9 10 10 11 11 12 12 12 13 14 15 15 16 16 17 18 19 20 22 23 23 24 24 25 25 26 27 28 29 29 30 31 32 32 33 33 34 35
5 4 4 4 4 3 3 3 2 2 3 4 3 4 4 4 4 6 6 6 6 5 2 1 2 2 2 3 2 2 3 4 5 6 5 4 5 4 5 5 6 6 6 6 5 6 7 8 8 9 10 10 11 12 12 13 13 14 16 16 17 18 19 19 20 22 23 24 24 24 25 25 26 27 28 29 30 31 31 32 33 33 34 34 35 36
4 4 4 4 3 3 2 2 2 3 4 4 4 4 4 4 6 7 7 7 7 6 4 2 2 3 3 2 2 3 4 4 6 6 6 5 6 6 5 6 6 6 6 6 6 7 8 8 9 9 10 11 12 13 13 14 15 16 17 18 18 19 20 21 22 23 23 24 25 25 26 27 28 29 30 31 32 32 33 33 34 34 35 35 36 37
3 4 3 3 3 3 2 2 4 5 5 4 4 4 4 5 6 6 7 7 6 6 6 4 3 3 3 2 3 4 5 5 5 5 5 5 6 6 6 6 6 6 6 7 7 8 9 9 10 11 11 12 13 14 15 15 16 17 18 19 20 21 21 22 23 23 24 25 26 27 28 28 29 30 31 32 33 33 34 34 35 35 36 37 37 38
2 3 3 3 3 3 3 3 4 6 5 4 3 4 4 6 7 7 8 7 5 4 5 5 4 4 3 3 4 4 5 5 5 5 5 6 6 7 7 7 7 7 8 8 9 9 10 11 12 12 13 14 14 15 15 16 17 19 19 20 21 22 22 23 24 24 25 26 27 28 29 30 31 32 33 33 34 34 35 35 36 36 37 38 38 39
2 2 4 4 3 3 4 3 3 5 5 4 3 5 6 6 7 7 7 6 4 4 5 5 5 4 4 4 4 4 4 5 5 5 6 6 7 7 8 8 8 9 9 9 10 11 11 12 13 13 14 15 15 16 16 17 18 19 20 21 22 23 23 24 25 25 26 27 28 29 30 31 32 33 34 35 36 36 36 36 37 37 38 39 39 40
2 2 4 4 4 3 3 4 4 5 5 4 3 6 7 7 6 5 5 5 5 5 5 5 5 5 5 5 5 5 5 5 6 7 7 8 8 9 9 9 10 10 10 10 11 12 12 13 14 14 15 16 16 17 17 18 19 21 21 22 23 23 24 25 25 26 27 29 30 31 32 33 34 34 35 36 36 36 37 37 37 38 39 40 40 41
4 3 3 4 4 4 4 5 6 6 6 5 4 6 7 6 5 5 5 5 6 6 5 4 5 6 6 6 6 6 7 7 8 8 8 9 10 11 11 11 11 11 11 12 13 13 13 14 15 15 16 17 17 18 19 19 20 21 22 23 23 24 25 26 27 28 29 30 31 32 32 33 34 35 35 36 36 37 37 38 38 39 40 40 41 40
5 4 4 4 6 6 6 7 7 6 6 6 6 7 6 5 6 6 6 6 6 5 5 4 5 6 7 7 7 8 8 8 9 9 9 10 11 11 12 12 12 12 13 13 14 14 14 15 15 16 16 17 18 19 20 21 21 22 23 24 25 26 27 27 28 29 29 30 31 31 32 33 34 35 36 36 37 37 37 38 38 39 40 40 40 39
6 5 5 6 6 6 7 8 8 8 8 7 6 6 6 6 7 7 6 6 6 5 5 5 5 6 7 7 8 8 8 8 8 8 9 9 10 11 11 11 12 12 13 14 15 15 15 16 16 16 17 18 19 20 21 21 22 23 24 25 26 26 27 27 27 28 29 30 31 31 32 34 35 36 37 37 36 36 37 38 39 40 40 40 39 38
7 6 7 7 6 6 7 9 8 8 8 7 6 6 7 7 7 7 7 7 7 6 6 6 6 7 8 8 8 7 7 7 7 7 8 9 10 12 12 12 13 14 14 15 15 15 15 16 17 17 18 19 20 20 21 21 22 22 23 24 25 26 26 27 28 29 30 31 32 33 34 35 36 36 36 36 36 37 38 38 39 39 39 39 38 38
7 7 7 7 7 7 8 8 8 8 8 8 7 7 7 7 7 7 8 8 8 8 8 8 9 9 9 9 8 7 6 7 7 7 9 10 11 12 12 13 14 14 14 14 15 15 16 16 17 18 18 19 20 20 20 20 21 22 23 24 25 26 27 29 30 31 32 33 34 34 35 35 35 36 36 36 36 37 38 39 39 39 39 38 38 38
7 7 7 6 7 8 8 8 8 8 9 9 8 8 8 7 6 7 8 9 9 9 10 10 10 11 10 8 7 6 6 7 8 8 9 10 11 12 13 13 14 14 15 15 16 16 16 16 17 17 17 18 19 19 19 20 21 22 23 25 26 28 29 30 32 32 33 34 35 35 35 35 35 35 36 36 37 38 39 39 39 39 39 38 38 39
7 8 7 6 7 8 9 9 8 8 8 9 9 10 10 9 8 8 9 9 10 10 11 10 11 11 10 8 7 6 7 8 9 9 10 11 12 13 13 14 14 14 15 15 15 15 15 15 15 16 17 17 18 19 20 21 22 23 24 26 28 29 30 31 32 33 34 35 35 35 34 34 35 36 36 37 38 39 40 41 41 40 39 39 39 39
Wind_Direction
66 68 82 133 175 195 201 183 168 163 147 152 160 152 147 146 146 152 144 146 140 116 106 120 125 120 104 108 118 130 141 133 124 132 138 137 134 131 125 118 107 90 80 74 64 60 54 44 35 28 23 22 24 23 21 20 16 14 13 12 11 9 5 4 1 358 356 353 350 349 347 343 340 336 331 326 321 318 315 312 309 304 302 299 296 295
53 56 80 166 180 190 186 151 142 140 140 148 158 152 147 149 147 146 142 150 160 134 129 136 122 108 103 118 124 130 140 141 132 140 151 150 146 141 129 117 107 92 81 75 64 57 51 44 35 27 22 22 24 23 21 20 20 20 20 21 19 17 16 14 10 7 5 2 0 360 358 356 354 351 347 342 335 331 327 324 320 315 310 306 301 298
44 46 52 176 150 136 124 130 133 140 146 151 166 161 153 153 144 135 142 145 159 152 146 145 126 117 125 131 128 128 139 148 147 149 152 151 152 148 137 124 112 101 86 72 59 51 44 37 30 23 22 23 24 24 23 23 25 25 24 24 22 20 18 15 13 11 8 5 4 3 1 360 358 357 355 352 348 343 339 336 333 329 324 319 313 308
42 35 34 72 113 124 121 124 129 139 151 161 171 166 162 164 157 157 170 157 138 148 150 147 137 134 134 137 138 138 147 153 154 153 147 154 167 171 153 136 124 114 92 70 49 36 32 28 23 21 20 21 23 24 25 25 25 24 22 20 19 18 15 13 11 10 8 6 5 4 2 0 358 357 355 354 353 349 345 343 341 338 335 331 326 321
44 38 58 79 104 124 123 120 129 141 151 165 176 172 168 171 170 162 163 153 125 133 152 140 125 140 148 147 158 158 159 159 162 164 155 163 183 182 159 144 137 130 110 84 44 22 22 23 20 18 16 17 21 23 23 21 19 18 17 15 14 13 12 10 10 9 7 6 5 3 1 360 358 356 354 352 350 348 345 342 340 338 336 335 332 329
47 52 68 79 95 112 119 121 134 150 153 160 182 177 167 166 160 149 149 150 140 153 175 149 113 158 163 150 159 157 160 165 168 176 172 175 188 173 163 161 149 134 121 86 43 29 26 27 22 13 10 14 21 23 21 16 14 13 12 10 10 10 9 9 9 9 8 7 5 3 1 359 356 355 353 350 347 344 342 340 337 335 334 333 331 330
57 60 67 76 87 96 107 115 128 152 146 147 164 159 156 157 151 149 155 158 156 168 180 157 137 163 166 165 164 153 164 174 170 185 190 189 188 177 177 180 164 136 112 59 33 28 25 25 21 15 13 15 19 20 16 13 11 11 9 8 8 8 8 8 9 9 8 8 5 3 1 358 355 352 349 346 343 341 339 338 336 335 334 333 330 328
68 64 66 70 75 82 91 101 116 135 131 138 153 145 145 149 149 153 158 158 161 163 160 141 139 143 158 189 168 154 171 183 183 199 202 200 194 186 189 191 175 149 119 45 21 17 17 20 21 21 20 17 13 11 12 11 10 9 8 8 8 8 8 8 8 8 7 5 3 1 358 355 352 348 344 341 340 338 336 335 334 333 333 332 331 329
74 74 75 74 74 80 88 93 100 107 116 134 142 136 139 144 144 145 145 148 149 150 161 179 147 128 159 194 159 157 183 191 199 204 203 206 200 191 197 194 172 151 135 48 31 25 23 22 21 20 17 12 7 6 8 9 7 7 6 8 8 8 7 5 3 2 1 360 358 356 353 351 348 344 342 339 338 337 336 334 333 331 330 330 330 329
78 83 88 82 79 85 89 88 89 92 104 121 121 120 127 131 132 128 130 141 134 138 172 186 158 127 151 190 167 174 194 195 199 199 202 210 202 196 200 187 166 154 154 72 67 61 40 28 20 16 13 11 6 4 5 4 4 4 4 5 6 4 2 360 358 356 355 353 352 351 349 347 344 341 339 338 336 335 335 334 332 330 328 327 326 325
80 83 85 82 84 91 89 82 84 91 101 107 106 108 109 110 117 117 123 133 125 139 179 176 164 144 146 201 189 187 196 189 188 192 201 207 195 191 191 177 170 168 167 164 76 63 43 29 18 14 12 11 7 2 2 3 2 1 1 2 2 359 355 354 354 354 352 350 348 347 346 344 342 339 337 336 334 332 332 332 330 329 327 325 323 322
75 74 73 83 93 94 87 79 82 91 97 99 100 105 104 100 103 104 110 121 122 146 180 169 163 141 121 210 204 199 199 184 185 194 198 194 179 177 176 168 170 174 176 184 119 36 20 18 9 9 10 9 8 1 358 0 360 357 356 356 357 354 351 349 350 351 349 347 346 345 343 342 339 336 335 334 331 329 329 328 326 325 324 323 323 321
73 73 76 89 93 93 91 87 87 86 89 94 100 104 100 94 94 98 111 127 135 151 163 157 150 133 125 227 195 188 186 179 184 191 185 177 163 162 164 161 165 177 187 197 216 314 338 352 353 356 359 359 0 356 351 352 352 351 351 350 350 349 347 346 346 347 346 344 343 341 340 338 336 334 333 331 329 327 325 324 322 322 321 321 321 320
70 61 76 90 87 94 96 94 100 104 106 108 108 106 100 95 95 106 126 127 135 146 146 142 132 112 347 312 166 166 168 172 179 181 177 171 158 155 158 160 167 182 194 213 262 315 329 335 339 343 345 345 347 345 342 343 345 348 348 346 344 342 341 342 342 342 341 340 338 337 337 335 333 333 331 328 327 326 324 322 321 320 318 319 320 320
80 62 75 94 102 114 102 95 112 123 125 125 112 105 105 106 105 118 137 130 131 140 136 124 109 104 105 120 154 152 158 168 173 176 172 166 162 160 162 167 173 186 204 238 298 328 328 328 333 336 338 338 336 334 333 337 342 346 347 345 342 339 338 339 340 339 340 340 338 337 336 334 331 330 329 327 325 325 324 322 321 320 318 317 318 318
84 73 74 86 102 117 109 96 97 100 112 130 108 99 99 113 107 105 121 128 123 115 102 99 102 113 128 121 123 134 157 165 156 153 153 149 157 162 166 172 178 194 217 251 307 324 321 323 328 332 335 333 328 327 329 333 337 341 343 343 342 340 340 340 340 341 341 341 340 338 336 334 331 329 327 326 325 325 324 322 320 319 318 316 316 316
83 74 63 72 88 108 110 92 84 92 110 115 110 120 121 113 109 103 104 109 106 100 95 107 105 94 98 96 115 144 170 165 145 145 144 140 149 156 166 178 186 205 226 265 303 313 316 319 322 326 330 326 322 324 327 329 331 335 338 339 339 339 340 340 339 340 340 340 340 339 338 335 332 330 327 325 324 324 324 322 320 319 317 316 315 314
98 91 68 79 92 97 90 80 73 72 91 102 115 147 116 94 98 108 110 96 91 103 132 127 132 143 130 133 180 178 185 177 159 159 151 145 151 157 172 186 199 220 244 281 301 310 316 318 318 320 322 320 320 322 321 321 324 330 334 335 337 338 337 337 336 337 338 339 339 338 338 336 334 332 329 325 324 324 323 322 320 319 318 316 315 314
99 99 72 79 95 80 59 74 65 36 65 100 115 116 108 105 91 101 120 132 123 127 149 121 140 170 172 184 187 186 195 189 181 186 174 166 171 172 187 203 219 244 266 287 304 315 318 318 316 316 318 317 317 317 315 318 323 328 331 331 334 336 336 334 334 335 336 336 336 336 337 336 334 332 330 328 326 324 323 321 320 319 318 317 317 315
95 100 91 46 63 60 54 68 67 30 34 60 63 62 89 121 124 86 86 135 140 135 134 125 154 238 219 207 192 192 200 191 193 208 196 183 188 191 204 219 235 254 272 290 310 318 316 315 315 315 316 316 318 318 317 319 323 326 328 328 331 334 334 333 333 334 335 335 335 336 336 335 334 333 331 330 328 327 325 323 321 320 319 318 317 316
87 92 91 57 20 48 65 58 79 98 39 32 47 39 21 49 101 76 41 54 122 132 128 135 254 272 255 221 195 198 202 197 203 215 203 191 195 200 208 221 241 256 274 294 307 310 308 310 316 318 317 314 318 322 321 321 322 323 324 327 330 332 332 333 334 335 335 335 335 335 336 336 335 334 334 333 332 331 329 327 325 323 322 320 319 318
89 90 87 74 51 64 77 54 72 99 70 73 104 34 343 59 102 94 19 4 76 126 142 135 163 276 274 232 199 203 197 198 205 200 190 198 204 215 222 229 248 263 281 296 301 303 303 306 314 320 319 312 314 320 323 325 325 323 323 327 330 330 331 333 334 335 335 336 336 337 338 339 338 338 338 337 336 335 333 331 329 327 326 324 323 322
95 93 84 78 71 77 75 56 57 55 51 66 68 48 185 157 109 126 244 341 49 82 111 95 44 289 279 232 194 203 190 192 193 175 174 199 213 226 238 248 266 279 288 294 296 299 302 306 311 318 320 314 312 319 325 328 328 327 326 328 330 330 331 333 334 335 337 338 340 341 342 342 341 341 341 341 339 337 336 335 333 332 330 328 326 325
87 88 86 80 68 64 57 46 44 36 40 51 35 26 66 50 101 145 170 148 80 43 77 32 346 295 292 286 166 173 170 174 178 172 180 216 238 244 253 264 277 286 291 294 296 300 306 309 310 314 318 315 314 320 325 327 327 328 329 329 331 332 333 334 335 337 339 341 343 344 344 343 342 343 343 342 340 339 338 337 336 335 333 331 329 326
80 92 94 82 58 45 39 30 28 25 36 53 35 23 46 54 67 93 140 113 39 344 234 11 305 270 287 316 151 159 157 165 182 188 200 229 248 256 263 270 280 289 294 296 300 304 307 307 308 310 312 314 317 320 323 327 327 327 328 330 332 334 334 335 337 340 341 344 345 345 344 343 343 344 344 342 341 340 340 339 338 336 334 332 330 328
83 96 100 96 87 77 62 29 30 34 38 44 34 28 39 44 51 77 100 53 8 330 359 66 240 259 299 332 149 169 172 186 213 225 238 246 248 257 266 273 281 288 292 296 302 305 304 306 310 312 310 310 313 316 321 326 327 326 328 331 334 335 336 337 339 342 343 344 344 344 344 344 344 344 343 342 342 341 340 340 338 337 335 333 331 329
80 79 82 97 112 126 128 120 76 73 58 43 34 35 41 43 47 64 65 58 68 12 13 290 207 202 323 297 207 234 253 257 256 257 261 257 253 262 270 274 281 289 296 300 302 301 303 309 312 311 307 307 310 313 319 325 327 328 332 334 335 337 339 340 341 342 343 343 343 344 345 344 344 344 343 343 342 342 341 340 339 338 337 335 333 332
83 76 76 89 96 109 120 108 77 79 72 59 51 48 47 47 48 50 52 65 102 64 12 273 209 138 254 238 205 245 268 274 273 270 267 264 265 269 270 274 284 293 299 302 300 299 303 309 310 309 308 307 310 313 320 326 330 333 335 336 337 338 340 341 342 342 342 342 343 344 345 345 345 344 344 343 343 342 342 341 340 339 338 336 335 334
87 81 79 80 68 59 75 75 73 76 71 68 71 64 56 56 56 53 50 53 60 62 307 245 168 158 221 225 212 232 247 260 277 282 277 275 275 268 264 271 281 289 296 300 302 303 304 307 309 310 308 308 312 318 325 333 335 336 337 337 338 340 340 341 341 341 341 342 344 345 345 345 345 345 344 343 342 342 341 341 340 340 339 338 338 337
81 77 76 71 56 43 43 52 58 60 60 59 56 54 56 55 52 47 41 36 44 57 81 102 94 147 235 238 237 249 257 269 300 315 308 297 279 258 257 271 280 290 299 304 309 311 310 309 309 310 310 314 320 326 332 336 336 337 338 338 340 340 339 340 340 341 341 343 345 345 345 345 345 344 344 343 342 341 341 340 340 340 340 339 339 339
66 66 61 63 54 38 33 41 44 51 69 64 42 41 54 49 36 32 32 34 42 47 50 70 79 25 302 283 269 289 301 310 331 341 334 322 295 264 264 284 296 304 310 315 322 325 327 326 323 320 322 326 328 330 334 337 337 338 338 338 338 339 338 339 340 341 342 344 344 344 344 343 343 343 343 342 342 341 341 340 340 340 340 339 339 338
57 51 36 50 57 37 35 50 41 46 62 54 35 38 49 39 27 18 14 21 39 56 54 54 53 326 313 344 349 340 353 356 344 344 345 343 333 309 304 315 315 317 322 326 329 333 337 339 338 336 334 332 330 329 331 334 336 336 336 335 336 336 337 338 339 340 342 343 343 342 342 342 342 342 342 341 341 341 340 340 341 340 340 339 338 338
60 55 39 52 64 27 21 57 47 40 44 29 15 35 36 25 23 14 8 10 18 42 43 24 318 278 293 43 16 340 347 343 328 330 341 352 0 2 360 353 339 324 320 320 321 328 334 336 337 334 329 327 326 327 329 332 335 335 335 334 334 335 336 337 338 340 341 341 340 341 341 341 340 340 339 339 339 339 339 339 340 340 339 339 338 338
54 61 52 55 60 26 6 43 44 33 31 353 323 9 35 33 33 23 11 3 359 10 14 5 354 308 99 85 59 340 346 334 318 323 331 336 1 357 348 342 334 322 318 318 321 327 331 331 330 326 323 324 326 330 333 334 334 333 333 333 333 334 336 337 337 338 338 338 338 338 339 338 338 338 337 337 336 337 337 338 338 339 339 339 339 338
46 54 47 39 50 39 22 39 41 16 346 314 328 351 34 49 42 27 10 358 359 23 37 38 50 106 130 108 75 41 23 5 359 2 357 353 4 1 350 341 331 323 320 320 323 325 326 328 326 323 324 327 329 332 333 332 331 331 331 331 332 333 334 335 335 335 335 335 335 335 336 336 336 336 336 335 334 335 336 336 337 338 339 339 339 339
57 58 46 33 38 31 23 33 38 353 337 344 347 355 24 25 19 20 10 353 349 12 44 58 58 237 57 58 63 48 24 14 15 8 348 340 349 356 356 345 334 329 320 312 316 321 323 324 323 321 322 324 325 327 328 328 329 330 330 331 332 331 331 332 332 332 332 332 332 333 334 334 335 335 334 333 333 333 334 335 336 337 338 338 339 339
57 52 40 30 30 35 32 27 17 8 1 351 348 353 3 357 353 8 6 343 331 336 16 63 298 286 334 35 55 6 351 1 0 343 324 322 328 332 337 331 326 326 318 310 313 318 318 317 315 315 316 319 322 324 325 327 328 329 330 332 331 330 329 330 330 330 329 330 330 331 331 332 333 333 333 332 332 332 333 334 335 336 337 337 337 337
47 46 49 42 28 34 45 36 25 17 355 326 312 325 344 347 346 6 8 342 323 317 324 65 310 290 332 5 348 318 340 345 335 318 304 299 307 315 318 312 312 318 318 316 319 322 321 317 314 315 317 319 322 323 324 325 326 329 330 331 330 329 328 328 328 327 327 328 328 328 329 330 330 330 330 330 330 330 331 332 334 335 335 335 335 335
33 34 46 44 25 27 45 41 26 5 338 317 296 308 333 352 2 9 3 333 310 304 301 343 313 301 338 347 324 327 339 325 306 298 292 286 292 301 307 307 311 316 316 317 319 320 320 320 322 324 325 324 323 322 322 323 325 328 329 329 329 328 326 326 326 326 326 326 326 327 327 327 327 328 328 329 328 329 329 330 331 332 333 333 333 334
10 9 17 16 4 12 31 3 338 333 328 317 300 299 318 351 8 8 350 320 301 292 291 299 298 304 330 341 330 336 330 306 293 293 290 285 291 301 308 310 310 309 307 309 314 317 319 321 325 329 329 326 325 324 324 324 325 326 326 326 327 325 324 325 325 325 325 325 326 326 326 326 325 326 326 327 327 327 327 328 329 330 331 331 332 332
332 342 350 347 337 338 340 321 318 320 317 310 299 296 318 354 360 347 325 313 301 289 290 291 287 295 311 319 314 313 305 294 291 295 293 291 298 304 304 301 299 299 302 307 312 316 319 320 322 324 324 324 325 326 326 326 325 324 324 324 324 323 324 324 324 324 324 325 325 325 325 325 324 324 325 326 326 326 326 326 327 328 329 329 330 330
295 318 322 321 318 316 316 318 321 318 313 309 308 311 331 344 332 318 317 319 305 291 295 294 288 296 310 312 304 297 293 292 293 299 299 295 296 299 296 293 294 298 303 307 310 313 316 317 318 319 320 321 323 324 325 325 323 323 323 323 322 322 324 324 323 323 323 324 324 324 324 324 324 324 324 325 325 324 324 325 326 326 327 328 328 328
275 296 302 300 302 315 325 330 332 320 308 304 316 323 329 329 320 322 333 330 309 303 306 298 293 302 315 314 303 292 292 294 292 296 298 295 295 296 293 292 295 298 300 303 305 307 310 312 313 314 316 319 320 322 323 323 322 322 323 322 322 323 324 323 323 323 323 323 323 324 324 324 324 324 324 324 324 323 323 324 325 325 326 326 326 326
307 307 307 303 306 322 321 304 301 305 300 293 307 317 318 320 325 339 349 337 322 318 313 300 294 297 301 304 300 295 296 295 292 295 298 296 296 297 295 295 296 296 297 300 302 304 306 307 307 309 312 315 317 319 321 321 321 322 322 322 323 324 324 324 324 324 323 323 323 324 324 324 324 324 324 324 323 323 323 323 324 324 325 326 325 325
289 288 300 305 306 310 300 288 291 301 300 289 296 309 313 317 325 337 347 345 336 325 314 302 293 293 293 294 297 299 297 294 294 296 296 295 298 300 299 298 297 295 296 299 301 303 304 303 304 306 309 312 315 317 319 320 320 321 321 322 324 325 325 325 325 324 324 324 325 326 326 326 326 326 326 326 325 324 323 323 323 324 325 326 325 325
286 296 306 309 311 311 308 304 304 305 300 293 299 308 310 308 312 322 335 341 339 334 330 318 302 297 295 293 297 300 296 292 294 294 293 296 301 303 302 300 297 295 296 297 299 300 301 302 304 306 308 311 314 316 318 319 318 319 321 323 325 326 326 326 326 325 326 327 328 329 329 328 328 328 327 327 326 325 324 324 324 325 326 326 326 326
293 305 310 310 313 312 308 308 310 306 299 297 303 307 305 302 304 310 320 325 326 328 329 319 307 304 302 297 298 299 295 295 300 301 299 301 304 307 307 305 301 298 296 296 298 299 299 301 305 307 308 310 314 317 318 318 319 321 324 326 326 326 327 327 328 328 329 329 329 329 328 328 328 328 327 326 326 326 326 326 326 326 326 326 326 326
290 302 303 303 306 303 296 300 310 312 306 302 301 296 295 297 300 304 309 313 315 317 317 311 305 304 302 297 295 299 302 304 307 309 308 308 310 313 315 312 308 304 301 300 300 301 301 302 304 306 308 310 314 317 319 322 324 326 327 328 328 328 329 329 330 330 330 329 328 328 327 327 327 327 327 326 326 326 327 327 327 326 326 326 326 326
287 297 298 297 303 305 299 301 314 324 320 315 307 296 291 292 297 302 305 306 308 309 308 305 302 302 300 296 295 301 308 308 306 309 311 311 314 317 318 315 313 310 306 304 303 302 303 304 305 307 310 313 316 319 322 325 327 327 328 328 328 329 329 329 329 329 329 328 327 327 327 327 327 327 327 326 326 327 327 327 327 326 326 326 326 326
287 291 293 297 301 299 293 293 304 313 311 306 304 300 294 293 297 301 302 302 303 302 301 303 305 305 303 297 293 296 301 302 303 306 309 310 312 315 316 316 316 312 309 308 307 307 309 310 310 312 315 317 319 322 323 325 326 327 328 328 328 328 328 328 328 328 327 327 326 326 326 326 327 327 327 327 327 327 327 327 327 326 325 325 326 325
278 277 278 281 285 285 283 286 294 300 297 293 295 297 295 295 299 300 299 299 301 299 299 303 305 304 303 298 289 286 292 297 300 305 308 309 310 313 315 317 318 316 314 313 313 314 316 316 316 317 319 319 320 321 322 324 325 325 326 327 327 327 327 327 326 326 326 326 326 326 326 327 327 327 328 328 327 327 327 327 327 326 324 324 324 324